Other Public Products
Issued by NWS Charleston, SC

Current Version | Previous Version | Graphics & Text | Print | Product List | Glossary Off
Versions: 1 2 3 4 5 6 7 8 9 10 11 12 13 14 15 16 17 18 19 20 21 22 23 24 25 26 27 28 29 30 31 32 33 34 35 36 37 38 39 40 41 42 43 44 45 46 47 48 49 50

719
FPUS82 KCHS 260311
OPUCHS

TEST...KCHS/KSAV Gateway Observations...TEST
National Weather Service Charleston SC
1000 PM EST SAT FEB 25 2017

NOTE: "fair" indicates few or no clouds below 12,000 feet with no
significant weather and/or obstructions to visibility.

SCZ050-WAZ558-NCZ071-TXZ119-213-PAZ071-DCZ001-FLZ074-172-MI076-
NYZ176-178-MAZ016-IL014-TNZ027-NJZ106-GAZ044-MD014-260400-
...Gateway Observations for Charleston International...

CITY           SKY/WX    TMP DP  RH WIND       PRES   REMARKS
Chas Airport   CLEAR     66  19  16 W16G24    29.88R
Seattle        CLOUDY    42  31  64 SW12      30.01F
Charlotte      CLEAR     50  20  30 NW8       29.90R
Dallas DFW     PTCLDY    46  21  37 SE5       30.07R
Dallas Love    PTCLDY    49  22  34 E6        30.09R
Philladelphia  CLOUDY    51  44  77 W14       29.69R
Wash National  PTCLDY    49  24  37 NW20G31   29.78R
Baltimore      PTCLDY    47  27  45 NW21G30   29.74R
Miami          MOCLDY    72  66  81 W5        29.98R
Detroit        CLOUDY    25  12  58 W15       29.96R WCI  13
Newark         MOCLDY    50  41  71 W13       29.60S
Laguardia      MOCLDY    50  42  74 NW13      29.59R
J F K          MOCLDY    51  42  71 W9        29.60S
Boston Logan   CLOUDY    55  55 100 S10       29.46S
Ft. Lauderdale PTCLDY    74  65  73 W10       29.96R
Chicago O`Hare CLOUDY    25  15  66 W9        30.01R WCI  15
Chicago Midway CLOUDY    26  13  57 W10       30.03R WCI  16
Houston Bush   CLEAR     56  35  45 NE3       30.10R
Houston Hobby  PTCLDY    60  35  39 E3        30.09R
Nashville      CLEAR     38  19  46 N6        30.15R WCI  33
Atlanta        CLEAR     48  25  40 NW14      30.04R

$$

GAZ044-118-TXZ119-213-NCZ071-DCZ001-MDZ014-506-PAZ021-071-NJZ106-
NYZ176-178-MAZ106-OHZ011-021-055-MIZ076-KYZ091-ILZ014-INZ047-
MNZ060-ONZ431-260400-
...Gateway Observations for Savannah International...

CITY           SKY/WX    TMP DP  RH WIND       PRES   REMARKS
Savannah Arpt  CLEAR     64  26  23 NW13      29.92R
Atlanta        CLEAR     48  25  40 NW14      30.04R
Charlotte      CLEAR     50  20  30 NW8       29.90R
Dallas DFW     PTCLDY    46  21  37 SE5       30.07R
Houston Bush   CLEAR     56  35  45 NE3       30.10R
Wash National  PTCLDY    49  24  37 NW20G31   29.78R
Wash Dulles    PTCLDY    45  23  42 NW16G25   29.78R
Baltimore      PTCLDY    47  27  45 NW21G30   29.74R
Philadelphia   CLOUDY    51  44  77 W14       29.69R
Newark         MOCLDY    50  41  71 W13       29.60S
Laguardia      MOCLDY    50  42  74 NW13      29.59R
J F K          MOCLDY    51  42  71 W9        29.60S
Boston         CLOUDY    55  55 100 S10       29.46S
Pittsburg      FLURRIES  29  18  63 W15       29.91R WCI  18
Akron          FLURRIES  27  14  58 W17G31    29.94R WCI  14
Cleveland      FLURRIES  29  17  61 W15G23    29.97R WCI  18
Cincinnati     PTCLDY    29  16  58 SW5       30.04S WCI  24
Columbus       CLOUDY    29  20  68 W10       30.03R WCI  20
Detroit        CLOUDY    25  12  58 W15       29.96R WCI  13
Chicago O`Hare CLOUDY    25  15  66 W9        30.01R WCI  15
Minneapolis    MOCLDY    26  17  68 S9        29.85F WCI  17
Indianapolis   PTCLDY    27  15  61 W9        30.04R WCI  18
Toronto Canada CLOUDY    28  19  69 W22       29.77R WCI  15

$$




USA.gov is the U.S. government's official web portal to all federal, state and local government web resources and services.